Location: Napoli
(40.8639°N, 14.2562°E)
Time: 11:40:26
(UTC+02:00)

ISS - Visible Passes

Search period start: 28 May 2018 00:00
Search period end: 07 June 2018 00:00
Orbit: 402 x 407 km, 51.6° (Epoch: 28 May)

Date Brightness Start Highest point End Pass type
(mag) Time Alt. Az. Time Alt. Az. Time Alt. Az.
28 May -0.7 01:07:57 10° NW 01:08:21 13° NW 01:08:21 13° NW visible
28 May -0.9 21:01:43 10° WNW 21:03:57 17° NNW 21:06:11 10° NNE visible
28 May -0.8 22:39:50 10° NNW 22:41:27 13° N 22:43:03 10° NE visible
29 May -1.3 00:15:55 10° NW 00:17:42 22° N 00:17:42 22° N visible
29 May -0.8 21:47:22 10° NNW 21:48:54 13° N 21:50:25 10° NNE visible
29 May -1.4 23:23:52 10° NNW 23:26:21 20° NNE 23:27:06 18° NE visible
30 May -0.8 20:54:38 10° NW 20:56:21 13° N 20:58:04 10° NNE visible
30 May -1.0 22:31:48 10° NNW 22:33:51 15° NNE 22:35:55 10° NE visible
31 May -1.4 00:07:43 10° NW 00:09:08 23° NW 00:09:08 23° NW visible
31 May -0.9 21:39:36 10° NNW 21:41:19 13° N 21:43:00 10° NE visible
31 May -2.3 23:15:36 10° NW 23:18:35 31° NNE 23:18:35 31° NNE visible
01 Jun -1.6 22:23:31 10° NNW 22:26:08 22° NNE 22:28:02 14° ENE visible
01 Jun -1.3 23:59:38 10° WNW 00:00:40 19° WNW 00:00:40 19° WNW visible
02 Jun -1.2 21:31:24 10° NNW 21:33:38 17° NNE 21:35:51 10° ENE visible
02 Jun -3.2 23:07:21 10° NW 23:10:09 55° NNW 23:10:09 55° NNW visible
03 Jun -2.6 22:15:10 10° NW 22:18:14 37° NNE 22:19:40 24° E visible
03 Jun -1.0 23:51:51 10° WNW 23:52:18 13° W 23:52:18 13° W visible
04 Jun -1.9 21:23:02 10° NW 21:25:48 24° NNE 21:28:33 10° E visible
04 Jun -3.0 22:59:15 10° WNW 23:01:50 43° W 23:01:50 43° W visible
05 Jun -3.9 22:06:53 10° NW 22:10:10 80° NE 22:11:24 35° ESE visible
06 Jun -3.0 21:14:38 10° NW 21:17:48 44° NNE 21:20:57 10° ESE visible
06 Jun -1.9 22:51:33 10° W 22:53:39 20° WSW 22:53:39 20° WSW visible
